Location: Noverd
(38.0910°N, 121.6877°W)
Time: 13:52:59
(UTC+00:00)

Envisat - Pass Details

Date: 23 April 2026
Orbit: 761 x 762 km, 98.4° (Epoch: 15 May)

Event Time Altitude Azimuth Distance (km) Brightness Sun altitude
Rises 11:16:14 0° 5° (N) 3,230 6.9 -22.4°
Reaches altitude 10° 11:18:37 10° 359° (N) 2,300 5.9 -22.0°
Maximum altitude 11:23:23 43° 289° (WNW) 1,058 3.4 -21.3°
Enters shadow 11:24:02 41° 268° (W) 1,092 3.4 -21.2°
